Darstellungsparameter: Aktuell verwendete Einstellungen:
Skalierung der Graphiken ... ?
xyx+y,   Skalierungsfaktor:      Skalierung: Modus: x, Faktor: 1
Darstellungszeitraum ... ?
Vom - - bis: - -   Zeitraum: 07.12.2010 - 06.06.2011
Min/Max/Avg-Anzeige ... ?
Zeige MMA aktuell
Zeige MMA Monat
Zeige MMA alles
Zeige --A aktuell
Zeige --A Monat
Zeige --A alles
Keine MMA-Anzeige
MMA:
Keine MMA-Graphiken
MMA-Basis: 07.12.2010 - 06.06.2011
Quicknavigation für Darstellung... ?
Tage:      1T, 2T, 3T, 5T -1T -2T -3T -5T +1T +2T +3T +5T
Wochen: 1W, 2W, 3W -1W -2W -3W +1W +2W +3W
Monate: 1M, 3M, 6M -1M -3M -6M +1M +3M +6M
Jahre:    1J, 3J, 5J, 10J -1J -3J -5J -10J +1J +3J +5J +10J
Nutze für die Darstellung ... ?
Originaldaten oder ...
Mittelwerte Minima Maxima auf...
Stundenbasis Tagesbasis Wochenbasis
Monatsbasis Jahresbasis      Datenbasis: Mittelwerte auf Tagesbasis
Darstellen als:
Statistik (Auto) Statistik J:M      Darstellung:
Zur Graphik,    zurück zur Übersicht aller Sensoren.
 
Tabellarische Datenbersicht: ?
 
Sensor: Nr:Datum:Temp:Abs-Feuchte:Windchill:Wind:
Aussen-T/F 1 07-12-2010 00:00:00 -0.20833 C 3.88 g/m*3 -0.21 C 0 km/h
2 08-12-2010 00:00:00 -0.25917 C 4.32 g/m*3 -0.26 C 0 km/h
3 09-12-2010 00:00:00 0.61333 C 3.92 g/m*3 0.61 C 0 km/h
4 10-12-2010 00:00:00 1.73333 C 4.69 g/m*3 1.73 C 0 km/h
5 11-12-2010 00:00:00 4.07583 C 5.18 g/m*3 4.08 C 0 km/h
6 12-12-2010 00:00:00 3.085 C 4.57 g/m*3 3.09 C 0 km/h
7 13-12-2010 00:00:00 -4.44833 C 2.51 g/m*3 -4.45 C 0 km/h
8 14-12-2010 00:00:00 -3.65833 C 2.82 g/m*3 -3.66 C 0 km/h
9 15-12-2010 00:00:00 -3.1275 C 2.86 g/m*3 -3.13 C 0 km/h
10 16-12-2010 00:00:00 -3.4675 C 2.96 g/m*3 -3.47 C 0 km/h
11 17-12-2010 00:00:00 -2.77417 C 2.92 g/m*3 -2.77 C 0 km/h
12 18-12-2010 00:00:00 -4.65833 C 2.74 g/m*3 -4.66 C 0 km/h
13 19-12-2010 00:00:00 -0.7125 C 3.86 g/m*3 -0.71 C 0 km/h
14 20-12-2010 00:00:00 -1.53667 C 3.48 g/m*3 -1.54 C 0 km/h
15 21-12-2010 00:00:00 -0.65546 C 4 g/m*3 -0.66 C 0 km/h
16 22-12-2010 00:00:00 0.9225 C 4.66 g/m*3 0.92 C 0 km/h
17 23-12-2010 00:00:00 -0.36833 C 4.23 g/m*3 -0.37 C 0 km/h
18 24-12-2010 00:00:00 -1.77438 C 3.53 g/m*3 -1.77 C 0 km/h
19 25-12-2010 00:00:00 -5.4775 C 2.37 g/m*3 -5.48 C 0 km/h
20 26-12-2010 00:00:00 -4.87833 C 2.59 g/m*3 -4.88 C 0 km/h
21 27-12-2010 00:00:00 -2.21833 C 3.28 g/m*3 -2.22 C 0 km/h
22 28-12-2010 00:00:00 -2.07899 C 3.35 g/m*3 -2.08 C 0 km/h
23 29-12-2010 00:00:00 -0.255 C 3.76 g/m*3 -0.26 C 0 km/h
24 30-12-2010 00:00:00 -0.55333 C 3.62 g/m*3 -0.55 C 0 km/h
25 31-12-2010 00:00:00 -1.09187 C 3.57 g/m*3 -1.09 C 0 km/h
Sensor: Nr:Datum:Temp:Abs-Feuchte:Windchill:Wind:
Aussen-T/F 26 01-01-2011 00:00:00 1.07311 C 4.52 g/m*3 1.07 C 0 km/h
27 02-01-2011 00:00:00 0.8025 C 4.39 g/m*3 0.8 C 0 km/h
28 03-01-2011 00:00:00 -0.9125 C 3.88 g/m*3 -0.91 C 0 km/h
29 04-01-2011 00:00:00 -2.36667 C 3.35 g/m*3 -2.37 C 0 km/h
30 05-01-2011 00:00:00 -3.83583 C 2.66 g/m*3 -3.84 C 0 km/h
31 06-01-2011 00:00:00 3.72667 C 5.49 g/m*3 3.73 C 0 km/h
32 07-01-2011 00:00:00 6.91833 C 6.93 g/m*3 6.92 C 0 km/h
33 08-01-2011 00:00:00 10.5675 C 7.09 g/m*3 10.57 C 0 km/h
34 09-01-2011 00:00:00 5.08655 C 5.84 g/m*3 5.09 C 0 km/h
35 10-01-2011 00:00:00 0.7175 C 4.39 g/m*3 0.72 C 0 km/h
36 11-01-2011 00:00:00 3.43667 C 4.81 g/m*3 3.44 C 0 km/h
37 12-01-2011 00:00:00 5.44 C 5.5 g/m*3 5.44 C 0 km/h
38 13-01-2011 00:00:00 11.80333 C 8.2 g/m*3 11.8 C 0 km/h
39 14-01-2011 00:00:00 11.77417 C 6.94 g/m*3 11.77 C 0 km/h
40 15-01-2011 00:00:00 8.68167 C 5.98 g/m*3 8.68 C 0 km/h
41 16-01-2011 00:00:00 6.84167 C 5.88 g/m*3 6.84 C 0 km/h
42 17-01-2011 00:00:00 3.62917 C 5.41 g/m*3 3.63 C 0 km/h
43 18-01-2011 00:00:00 7.28833 C 6.01 g/m*3 7.29 C 0 km/h
44 19-01-2011 00:00:00 3.30833 C 4.71 g/m*3 3.31 C 0 km/h
45 20-01-2011 00:00:00 1.7 C 4.36 g/m*3 1.7 C 0 km/h
46 21-01-2011 00:00:00 -0.0675 C 3.06 g/m*3 -0.07 C 0 km/h
47 22-01-2011 00:00:00 0.39664 C 3.9 g/m*3 0.4 C 0 km/h
48 23-01-2011 00:00:00 1.50167 C 4.65 g/m*3 1.5 C 0 km/h
49 24-01-2011 00:00:00 3.10167 C 5.07 g/m*3 3.1 C 0 km/h
50 25-01-2011 00:00:00 2.49833 C 4.56 g/m*3 2.5 C 0 km/h
Sensor: Nr:Datum:Temp:Abs-Feuchte:Windchill:Wind:
Aussen-T/F 51 26-01-2011 00:00:00 0.84083 C 4.26 g/m*3 0.84 C 0 km/h
52 27-01-2011 00:00:00 -0.28583 C 3.4 g/m*3 -0.29 C 0 km/h
53 28-01-2011 00:00:00 -1.27083 C 2.87 g/m*3 -1.27 C 0 km/h
54 29-01-2011 00:00:00 -4.9 C 2.7 g/m*3 -4.9 C 0 km/h
55 30-01-2011 00:00:00 -6.20917 C 2.48 g/m*3 -6.21 C 0 km/h
56 31-01-2011 00:00:00 -5.73833 C 2.59 g/m*3 -5.74 C 0 km/h
57 01-02-2011 00:00:00 -4.03917 C 2.66 g/m*3 -4.04 C 0 km/h
58 02-02-2011 00:00:00 -0.865 C 3.47 g/m*3 -0.87 C 0 km/h
59 03-02-2011 00:00:00 1.94454 C 4.48 g/m*3 1.94 C 0 km/h
60 04-02-2011 00:00:00 6.18583 C 5.15 g/m*3 6.19 C 0 km/h
61 05-02-2011 00:00:00 9.25833 C 5.56 g/m*3 9.26 C 0 km/h
62 06-02-2011 00:00:00 8.62 C 5.16 g/m*3 8.62 C 0 km/h
63 07-02-2011 00:00:00 6.48083 C 4.13 g/m*3 6.48 C 0 km/h
64 08-02-2011 00:00:00 5.48833 C 4.56 g/m*3 5.49 C 0 km/h
65 09-02-2011 00:00:00 -0.23333 C 3.95 g/m*3 -0.23 C 0 km/h
66 10-02-2011 00:00:00 3.9425 C 4.99 g/m*3 3.94 C 0 km/h
67 11-02-2011 00:00:00 10.23917 C 7.08 g/m*3 10.24 C 0 km/h
68 12-02-2011 00:00:00 6.88 C 6.26 g/m*3 6.88 C 0 km/h
69 13-02-2011 00:00:00 5.13417 C 5.66 g/m*3 5.13 C 0 km/h
70 14-02-2011 00:00:00 5.215 C 5.63 g/m*3 5.22 C 0 km/h
71 15-02-2011 00:00:00 5.14958 C 5.71 g/m*3 5.15 C 0 km/h
72 16-02-2011 00:00:00 4.90417 C 5.38 g/m*3 4.9 C 0 km/h
73 17-02-2011 00:00:00 1.96333 C 4.29 g/m*3 1.96 C 0 km/h
74 18-02-2011 00:00:00 2.23667 C 4.1 g/m*3 2.24 C 0 km/h
75 19-02-2011 00:00:00 2.82833 C 4.31 g/m*3 2.83 C 0 km/h
Sensor: Nr:Datum:Temp:Abs-Feuchte:Windchill:Wind:
Aussen-T/F 76 20-02-2011 00:00:00 0.7 C 3.16 g/m*3 0.7 C 0 km/h
77 21-02-2011 00:00:00 -1.8125 C 2.2 g/m*3 -1.81 C 0 km/h
78 22-02-2011 00:00:00 -3.39167 C 1.99 g/m*3 -3.39 C 0 km/h
79 23-02-2011 00:00:00 -2.66583 C 2.02 g/m*3 -2.67 C 0 km/h
80 24-02-2011 00:00:00 0.91083 C 3.9 g/m*3 0.91 C 0 km/h
81 25-02-2011 00:00:00 3.445 C 5.16 g/m*3 3.45 C 0 km/h
82 26-02-2011 00:00:00 5.07167 C 5.18 g/m*3 5.07 C 0 km/h
83 27-02-2011 00:00:00 5.47731 C 5.17 g/m*3 5.48 C 0 km/h
84 28-02-2011 00:00:00 4.52333 C 4.47 g/m*3 4.52 C 0 km/h
85 01-03-2011 00:00:00 4.31167 C 4.54 g/m*3 4.31 C 0 km/h
86 02-03-2011 00:00:00 3.41 C 3.07 g/m*3 3.41 C 0 km/h
87 03-03-2011 00:00:00 1.585 C 2.66 g/m*3 1.59 C 0 km/h
88 04-03-2011 00:00:00 2.1825 C 3.4 g/m*3 2.18 C 0 km/h
89 05-03-2011 00:00:00 0.19833 C 3.69 g/m*3 0.2 C 0 km/h
90 06-03-2011 00:00:00 1.7325 C 3.29 g/m*3 1.73 C 0 km/h
91 07-03-2011 00:00:00 1.05667 C 2.45 g/m*3 1.06 C 0 km/h
92 08-03-2011 00:00:00 1.92583 C 2.89 g/m*3 1.93 C 0 km/h
93 09-03-2011 00:00:00 6.48333 C 4.63 g/m*3 6.48 C 0 km/h
94 10-03-2011 00:00:00 7.3 C 4.55 g/m*3 7.3 C 0 km/h
95 11-03-2011 00:00:00 8.78571 C 4.65 g/m*3 8.79 C 0 km/h
96 12-03-2011 00:00:00 7.3525 C 4.83 g/m*3 7.35 C 0 km/h
97 13-03-2011 00:00:00 11.07917 C 6.51 g/m*3 11.08 C 0 km/h
98 14-03-2011 00:00:00 10.09917 C 7.33 g/m*3 10.1 C 0 km/h
99 15-03-2011 00:00:00 10.73917 C 6.79 g/m*3 10.74 C 0 km/h
100 16-03-2011 00:00:00 8.73583 C 5.74 g/m*3 8.74 C 0 km/h
Sensor: Nr:Datum:Temp:Abs-Feuchte:Windchill:Wind:
Aussen-T/F 101 17-03-2011 00:00:00 6.295 C 5.87 g/m*3 6.3 C 0 km/h
102 18-03-2011 00:00:00 6.41833 C 5.24 g/m*3 6.42 C 0 km/h
103 19-03-2011 00:00:00 6.63 C 4.93 g/m*3 6.63 C 0 km/h
104 20-03-2011 00:00:00 3.39167 C 3.78 g/m*3 3.39 C 0 km/h
105 21-03-2011 00:00:00 4.66333 C 3.99 g/m*3 4.66 C 0 km/h
106 22-03-2011 00:00:00 6.83333 C 4.54 g/m*3 6.83 C 0 km/h
107 23-03-2011 00:00:00 8.59333 C 5.59 g/m*3 8.59 C 0 km/h
108 24-03-2011 00:00:00 9.14417 C 5.42 g/m*3 9.14 C 0 km/h
109 25-03-2011 00:00:00 9.65798 C 5.14 g/m*3 9.66 C 0 km/h
110 26-03-2011 00:00:00 8.11917 C 4.97 g/m*3 8.12 C 0 km/h
111 27-03-2011 00:00:00 9.62174 C 4.9 g/m*3 9.62 C 0 km/h
112 28-03-2011 00:00:00 7.7225 C 4.66 g/m*3 7.72 C 0 km/h
113 29-03-2011 00:00:00 7.42083 C 4.65 g/m*3 7.42 C 0 km/h
114 30-03-2011 00:00:00 8.36333 C 5.61 g/m*3 8.36 C 0 km/h
115 31-03-2011 00:00:00 12.03833 C 7.81 g/m*3 12.04 C 0 km/h
116 01-04-2011 00:00:00 13.985 C 8.25 g/m*3 13.99 C 0 km/h
117 02-04-2011 00:00:00 14.21833 C 8.12 g/m*3 14.22 C 0 km/h
118 03-04-2011 00:00:00 11.81167 C 8.04 g/m*3 11.81 C 0 km/h
119 04-04-2011 00:00:00 10.68333 C 6.57 g/m*3 10.68 C 0 km/h
120 05-04-2011 00:00:00 9.30833 C 6.12 g/m*3 9.31 C 0 km/h
121 06-04-2011 00:00:00 15.69167 C 8.48 g/m*3 15.69 C 0 km/h
122 07-04-2011 00:00:00 16.35294 C 8.33 g/m*3 16.35 C 0 km/h
123 08-04-2011 00:00:00 13.4925 C 6.55 g/m*3 13.49 C 0 km/h
124 09-04-2011 00:00:00 12.96917 C 5.63 g/m*3 12.97 C 0 km/h
125 10-04-2011 00:00:00 12.2825 C 6.01 g/m*3 12.28 C 0 km/h
Sensor: Nr:Datum:Temp:Abs-Feuchte:Windchill:Wind:
Aussen-T/F 126 11-04-2011 00:00:00 14.76333 C 6.76 g/m*3 14.76 C 0 km/h
127 12-04-2011 00:00:00 10.27917 C 5.45 g/m*3 10.28 C 0 km/h
128 13-04-2011 00:00:00 7.60083 C 4.45 g/m*3 7.6 C 0 km/h
129 14-04-2011 00:00:00 8.3025 C 4.49 g/m*3 8.3 C 0 km/h
130 15-04-2011 00:00:00 7.43583 C 4.66 g/m*3 7.44 C 0 km/h
131 16-04-2011 00:00:00 8.14667 C 4.58 g/m*3 8.15 C 0 km/h
132 17-04-2011 00:00:00 11.61917 C 4.82 g/m*3 11.62 C 0 km/h
133 18-04-2011 00:00:00 10.9521 C 5.51 g/m*3 10.95 C 0 km/h
134 19-04-2011 00:00:00 12.87583 C 6.2 g/m*3 12.88 C 0 km/h
135 20-04-2011 00:00:00 13.54917 C 6.5 g/m*3 13.55 C 0 km/h
136 21-04-2011 00:00:00 14.49333 C 6.84 g/m*3 14.49 C 0 km/h
137 22-04-2011 00:00:00 16.35083 C 7.67 g/m*3 16.35 C 0 km/h
138 23-04-2011 00:00:00 18.26083 C 9.25 g/m*3 18.26 C 0 km/h
139 24-04-2011 00:00:00 16.74333 C 7.71 g/m*3 16.74 C 0 km/h
140 25-04-2011 00:00:00 15.975 C 6.16 g/m*3 15.98 C 0 km/h
141 26-04-2011 00:00:00 12.8275 C 6.81 g/m*3 12.83 C 0 km/h
142 27-04-2011 00:00:00 11.27167 C 7.84 g/m*3 11.27 C 0 km/h
143 28-04-2011 00:00:00 13.99 C 8.66 g/m*3 13.99 C 0 km/h
144 29-04-2011 00:00:00 15.08333 C 8.49 g/m*3 15.08 C 0 km/h
145 30-04-2011 00:00:00 15.42 C 7.44 g/m*3 15.42 C 0 km/h
146 01-05-2011 00:00:00 15.09328 C 4.89 g/m*3 15.09 C 0 km/h
147 02-05-2011 00:00:00 11.83333 C 4.67 g/m*3 11.83 C 0 km/h
148 03-05-2011 00:00:00 10.93167 C 4.17 g/m*3 10.93 C 0 km/h
149 04-05-2011 00:00:00 8.28 C 4.54 g/m*3 8.28 C 0 km/h
150 05-05-2011 00:00:00 10.32333 C 5.35 g/m*3 10.32 C 0 km/h
Sensor: Nr:Datum:Temp:Abs-Feuchte:Windchill:Wind:
Aussen-T/F 151 06-05-2011 00:00:00 13.52917 C 6.22 g/m*3 13.53 C 0 km/h
152 07-05-2011 00:00:00 17.6125 C 7.44 g/m*3 17.61 C 0 km/h
153 08-05-2011 00:00:00 19.07167 C 6.15 g/m*3 19.07 C 0 km/h
154 09-05-2011 00:00:00 18.40083 C 6.19 g/m*3 18.4 C 0 km/h
155 10-05-2011 00:00:00 17.95833 C 7.69 g/m*3 17.96 C 0 km/h
156 11-05-2011 00:00:00 18.40667 C 9.52 g/m*3 18.41 C 0 km/h
157 12-05-2011 00:00:00 15.77833 C 7.19 g/m*3 15.78 C 0 km/h
158 13-05-2011 00:00:00 13.68403 C 6.25 g/m*3 13.68 C 0 km/h
159 14-05-2011 00:00:00 12.59917 C 5.87 g/m*3 12.6 C 0 km/h
160 15-05-2011 00:00:00 10.34333 C 6.13 g/m*3 10.34 C 0 km/h
161 16-05-2011 00:00:00 12.58667 C 6.68 g/m*3 12.59 C 0 km/h
162 17-05-2011 00:00:00 17.04083 C 7.51 g/m*3 17.04 C 0 km/h
163 18-05-2011 00:00:00 16.60583 C 7.79 g/m*3 16.61 C 0 km/h
164 19-05-2011 00:00:00 17.10833 C 9.04 g/m*3 17.11 C 0 km/h
165 20-05-2011 00:00:00 16.53 C 10.17 g/m*3 16.53 C 0 km/h
166 21-05-2011 00:00:00 19.16077 C 9.98 g/m*3 19.16 C 0 km/h
167 22-05-2011 00:00:00 16.79593 C 8.96 g/m*3 16.8 C 0 km/h
168 23-05-2011 00:00:00 16.00167 C 6.77 g/m*3 16 C 0 km/h
169 24-05-2011 00:00:00 15.90583 C 6.52 g/m*3 15.91 C 0 km/h
170 25-05-2011 00:00:00 15.29333 C 5.83 g/m*3 15.29 C 0 km/h
171 26-05-2011 00:00:00 16.04833 C 5.88 g/m*3 16.05 C 0 km/h
172 27-05-2011 00:00:00 14.61 C 5.61 g/m*3 14.61 C 0 km/h
173 28-05-2011 00:00:00 15.2875 C 6.34 g/m*3 15.29 C 0 km/h
174 29-05-2011 00:00:00 19.21849 C 6.84 g/m*3 19.22 C 0 km/h
175 30-05-2011 00:00:00 20.91333 C 8.63 g/m*3 20.91 C 0 km/h
Sensor: Nr:Datum:Temp:Abs-Feuchte:Windchill:Wind:
Aussen-T/F 176 31-05-2011 00:00:00 14.84583 C 9.06 g/m*3 14.85 C 0 km/h
177 01-06-2011 00:00:00 14.86083 C 7 g/m*3 14.86 C 0 km/h
178 02-06-2011 00:00:00 19.79167 C 7.15 g/m*3 19.79 C 0 km/h
179 03-06-2011 00:00:00 20.65583 C 6.79 g/m*3 20.66 C 0 km/h
180 04-06-2011 00:00:00 21.20417 C 10.39 g/m*3 21.2 C 0 km/h
181 05-06-2011 00:00:00 18.63333 C 12.99 g/m*3 18.63 C 0 km/h
182 06-06-2011 00:00:00 18.38667 C 11.93 g/m*3 18.39 C 0 km/h

Maximal/Minimal-Werte vom 07.12.2010 - 06.06.2011

Sensor Min Max Avg
Temp
(Aussen-T/F)
-9.5 °C
23-02-2011  06:31:05
33.8 °C
30-05-2011  18:12:02
7.23 °C
Abs-Feuchte
(Aussen-T/F)
1.99 g/m*3
22-02-2011  00:00:00
12.99 g/m*3
05-06-2011  00:00:00
5.37 g/m*3
Windchill
(Aussen-T/F)
-6.21 C
30-01-2011  00:00:00
21.2 C
04-06-2011  00:00:00
7.19 C

Die Daten stammen von einer Davis Vantage Pro 2 Wetter-Station und werden unter Linux mit der Software wview2wettercgi und aufbereitet. Alle Angaben erfolgen ohne Gewähr für ihre Vollständigkeit oder Richtigkeit.
Kontakt: Rainer Krienke krienke@uni-koblenz.de . Meine Webseiten an der Uni Koblenz oder privat.
Version: $Revision: 0.78 $